Location: Home
(42.5358°N, 72.7383°W)
Time: 17:11:46
(UTC-05:00)

N. Korean satellite - Pass Details

Date: 30 October 2021
Orbit: 446 x 495 km, 97.3° (Epoch: 07 December)

Event Time Altitude Azimuth Distance (km) Brightness Sun altitude
Rises 06:34:38 0° 4° (N) 2,584 10.2 -9.4°
Reaches altitude 10° 06:36:48 10° 357° (N) 1,691 9.2 -9.0°
Maximum altitude 06:40:14 40° 287° (WNW) 730 7.0 -8.4°
Drops below altitude 10° 06:43:35 10° 217° (SW) 1,654 9.0 -7.7°
Sets 06:45:41 0° 210° (SSW) 2,520 10.0 -7.4°
